time_stamp(utc),avg(mph),gust(mph),direction(deg),12m_air_temp(f),sonic_u(cm/s),sonic_v(cm/s),sonic_w(cm/s),pressure,2m_air_temp(f),pyranometer(W/m^2)
"2020-04-01 00:02:45+00",18.9,20.9,,42.1,841,110,39,1013.46,42,0
"2020-04-01 00:07:45+00",15.6,17.6,,42.1,677,215,52,1013.56,42,0
"2020-04-01 00:12:45+00",18.1,22.1,,42.1,792,233,49,1013.47,42,0
"2020-04-01 00:17:45+00",18.8,20.8,,42.1,839,127,34,1013.26,42,0
"2020-04-01 00:22:45+00",17.2,20.2,,42.1,756,225,50,1013.26,42,0
"2020-04-01 00:27:45+00",18.6,23.6,,42.1,826,215,61,1013.17,42,0
"2020-04-01 00:32:45+00",18.8,21.8,,42.1,818,262,42,1013.2,41.9,0
"2020-04-01 00:37:45+00",16.9,18.9,,42.1,742,227,54,1013.26,41.9,0
"2020-04-01 00:42:45+00",17.6,20.6,,42,782,128,43,1013.67,41.9,0
"2020-04-01 00:47:45+00",18.2,22.2,,42,812,165,54,1013.65,41.9,0
"2020-04-01 00:52:45+00",16.4,19.4,,42,733,102,42,1013.55,41.8,0
"2020-04-01 00:57:45+00",14.2,17.2,,41.9,622,89,37,1013.58,41.7,0
"2020-04-01 01:02:45+00",16.5,19.5,,42.1,749,-13,35,1013.62,41.7,0
"2020-04-01 01:07:45+00",17.6,19.6,,42,784,26,35,1013.7,41.7,0
"2020-04-01 01:12:45+00",15.3,17.3,,42.1,681,56,29,1013.99,41.7,0
"2020-04-01 01:17:45+00",12.2,14.2,,42,540,5,46,1013.82,41.7,0
"2020-04-01 01:22:45+00",14.2,16.2,,42,618,106,26,1013.51,41.6,0
"2020-04-01 01:27:45+00",13.9,14.9,,42,623,57,30,1013.5,41.6,0
"2020-04-01 01:32:45+00",13.6,15.6,,42,612,67,27,1013.53,41.5,0
"2020-04-01 01:37:45+00",15.8,17.8,,42,707,30,40,1013.53,41.5,0
"2020-04-01 01:42:45+00",15.0,16.0,,42,657,151,43,1013.38,41.5,0
"2020-04-01 01:47:45+00",13.8,16.8,,42,627,-24,32,1013.47,41.5,0
"2020-04-01 01:52:45+00",16.5,18.5,,42,740,74,37,1013.05,41.5,0
"2020-04-01 01:57:45+00",15.6,17.6,,42,701,26,42,1013.11,41.5,0
"2020-04-01 02:02:45+00",14.2,16.2,,42,644,47,46,1013.05,41.5,0
"2020-04-01 02:07:45+00",14.5,17.5,,42,638,60,41,1012.88,41.5,0
"2020-04-01 02:12:45+00",15.1,16.1,,41.9,669,62,49,1012.76,41.5,0
"2020-04-01 02:17:45+00",14.4,17.4,,41.9,650,18,49,1012.83,41.5,0
"2020-04-01 02:22:45+00",17.7,19.7,,41.9,807,-50,20,1012.62,41.5,0
"2020-04-01 02:27:45+00",17.8,20.8,,41.9,803,34,32,1012.21,41.5,0
"2020-04-01 02:32:45+00",18.3,20.3,,41.9,814,70,36,1012.16,41.5,0
"2020-04-01 02:37:45+00",18.5,20.5,,41.9,821,-13,35,1011.84,41.6,0
"2020-04-01 02:42:45+00",18.5,20.5,,41.8,829,76,53,1011.75,41.5,0
"2020-04-01 02:47:45+00",20.3,23.3,,41.9,911,60,73,1011.53,41.5,0
"2020-04-01 02:52:45+00",21.0,24.0,,41.7,931,180,50,1011.38,41.5,0
"2020-04-01 02:57:45+00",18.4,22.4,,41.8,827,94,63,1011.38,41.4,0
"2020-04-01 03:02:45+00",20.9,22.9,,41.7,946,32,51,1011.51,41.4,0
"2020-04-01 03:07:45+00",21.8,24.8,,41.7,974,166,46,1011.57,41.3,0
"2020-04-01 03:12:45+00",19.6,23.6,,41.7,872,119,59,1011.58,41.3,0
"2020-04-01 03:17:45+00",23.0,25.0,,41.6,1014,227,51,1011.18,41.3,0
"2020-04-01 03:22:45+00",21.7,24.7,,41.7,972,68,50,1011.23,41.3,0
"2020-04-01 03:27:45+00",20.8,25.8,,41.7,937,52,64,1011.36,41.4,0
"2020-04-01 03:32:45+00",18.4,22.4,,41.7,815,100,26,1011.65,41.4,0
"2020-04-01 03:37:45+00",17.6,20.6,,41.8,794,55,42,1011.68,41.4,0
"2020-04-01 03:42:45+00",18.5,24.5,,41.8,827,98,42,1011.42,41.4,0
"2020-04-01 03:47:45+00",19.0,21.0,,41.8,859,27,42,1011.67,41.4,0
"2020-04-01 03:52:45+00",20.8,23.8,,41.8,937,70,45,1011.4,41.5,0
"2020-04-01 03:57:45+00",20.1,23.1,,41.8,894,118,38,1010.99,41.5,0
"2020-04-01 04:02:45+00",19.6,22.6,,41.7,871,172,69,1010.72,41.5,0
"2020-04-01 04:07:45+00",21.3,23.3,,41.7,952,152,70,1010.95,41.5,0
"2020-04-01 04:12:45+00",22.0,24.0,,41.7,993,51,36,1010.75,41.5,0
"2020-04-01 04:17:45+00",20.8,22.8,,41.8,924,153,67,1010.6,41.5,0
"2020-04-01 04:22:45+00",21.5,23.5,,41.8,952,167,42,1010.46,41.6,0
"2020-04-01 04:27:45+00",21.6,23.6,,41.8,966,66,52,1010.53,41.6,0
"2020-04-01 04:32:45+00",22.5,25.5,,41.8,1005,105,39,1010.36,41.6,0
"2020-04-01 04:37:45+00",23.4,25.4,,41.7,1048,62,41,1009.78,41.6,0
"2020-04-01 04:42:45+00",22.8,24.8,,41.7,1013,132,44,1009.69,41.6,0
"2020-04-01 04:47:45+00",20.5,22.5,,41.9,921,96,65,1009.91,41.7,0
"2020-04-01 04:52:45+00",21.5,24.5,,41.8,950,116,52,1010.18,41.6,0
"2020-04-01 04:57:45+00",19.7,21.7,,41.7,865,176,47,1010.04,41.6,0
"2020-04-01 05:02:45+00",23.1,25.1,,41.7,1041,78,42,1009.4,41.6,0
"2020-04-01 05:07:45+00",23.7,26.7,,41.7,1061,169,51,1009.68,41.6,0
"2020-04-01 05:12:45+00",18.1,21.1,,41.8,813,21,52,1010.13,41.6,0
"2020-04-01 05:17:45+00",22.7,25.7,,41.8,1014,94,38,1009.98,41.6,0
"2020-04-01 05:22:45+00",19.0,21.0,,41.7,858,138,107,1010.28,41.6,0
"2020-04-01 05:27:45+00",22.1,26.1,,41.8,997,127,67,1010.08,41.6,0
"2020-04-01 05:32:45+00",22.1,24.1,,41.7,1016,42,82,1010.15,41.6,0
"2020-04-01 05:37:45+00",21.8,23.8,,41.7,1002,86,92,1009.87,41.6,0
"2020-04-01 05:42:45+00",18.8,21.8,,41.7,843,75,43,1009.8,41.6,0
"2020-04-01 05:47:45+00",20.6,23.6,,41.6,2225,-2011,1320,1009.69,41.6,0
"2020-04-01 05:52:45+00",17.5,21.5,,41.8,1109,-463,471,1009.78,41.7,0
"2020-04-01 05:57:45+00",22.5,24.5,,41.6,1757,-1121,782,1009.55,41.7,0
"2020-04-01 06:02:45+00",18.1,21.1,,41.6,1573,-1161,772,1009.64,41.6,0
"2020-04-01 06:07:45+00",20.5,22.5,,41.7,1983,-1666,1071,1009.58,41.7,0
"2020-04-01 06:12:45+00",21.8,23.8,,41.7,1291,-444,379,1009.36,41.7,0
"2020-04-01 06:17:45+00",21.8,24.8,,41.6,2771,-2923,1803,1009.12,41.6,0
"2020-04-01 06:22:45+00",21.0,27.0,,41.8,1966,-1745,1128,1008.98,41.7,0
"2020-04-01 06:27:45+00",19.7,22.7,,41.7,1917,-1738,1130,1008.86,41.7,0
"2020-04-01 06:32:45+00",23.7,27.7,,41.7,1330,88,171,1008.43,41.7,0
"2020-04-01 06:37:45+00",26.6,30.6,,41.5,2257,-1333,991,1008.24,41.6,0
"2020-04-01 06:47:45+00",25.8,28.8,,41.5,2911,-2494,1652,1007.99,41.5,0
"2020-04-01 06:52:45+00",24.8,26.8,,41.5,2194,-1568,1049,1008.23,41.6,0
"2020-04-01 07:02:45+00",23.5,27.5,,41.5,3115,-3168,1978,1008.26,41.5,0
"2020-04-01 07:27:45+00",25.8,28.8,,41.3,2181,-1242,997,1007.74,41.4,0
"2020-04-01 07:47:45+00",23.2,28.2,,41.4,3237,-3192,2086,1007.46,41.4,0
"2020-04-01 07:52:45+00",27.2,30.2,,41.3,2149,-1206,1025,1007.44,41.3,0
"2020-04-01 07:57:45+00",27.6,30.6,,41.3,2011,-915,889,1007.38,41.2,0
"2020-04-01 08:02:45+00",25.5,29.5,,41.3,2392,-1404,1189,1007.43,41.2,0
"2020-04-01 08:07:45+00",27.1,30.1,,41.2,2137,-1155,1008,1007.31,41.2,0
"2020-04-01 08:12:45+00",27.3,32.3,,41.3,1963,-680,834,1007.28,41.2,0
"2020-04-01 08:17:45+00",30.0,34.0,,41.2,1973,-583,832,1007.1,41.2,0
"2020-04-01 08:22:45+00",28.2,33.2,,41.2,2275,-1116,1152,1007,41.2,0
"2020-04-01 08:27:45+00",27.9,30.9,,41.2,1907,-647,833,1007.01,41.2,0
"2020-04-01 08:32:45+00",28.1,30.1,,41.2,2398,-1439,1264,1006.74,41.1,0
"2020-04-01 08:37:45+00",27.2,31.2,,41.3,2923,-2181,1671,1006.48,41.2,0
"2020-04-01 08:42:45+00",30.9,34.9,,41.2,2330,-1268,1231,1006.07,41.2,0
"2020-04-01 08:47:45+00",29.1,33.1,,41.2,2435,-1497,1391,1006.28,41.1,0
"2020-04-01 08:52:45+00",28.3,34.3,,41.2,1854,-409,771,1006.27,41.1,0
"2020-04-01 08:57:45+00",29.3,34.3,,41.2,1477,292,394,1006.31,41.1,0
"2020-04-01 09:02:45+00",30.0,32.0,,41.2,3294,-3022,2173,1006.43,41.1,0
"2020-04-01 09:07:45+00",29.6,33.6,,41,2469,-1494,1334,1006.21,41,0
"2020-04-01 09:12:45+00",29.9,34.9,,41.2,1871,-429,778,1006.09,41,0
"2020-04-01 09:17:45+00",32.1,34.1,,41.1,1956,-528,852,1006.19,41,0
"2020-04-01 09:22:45+00",33.2,36.2,,41.1,2270,-1091,1185,1006.27,41,0
"2020-04-01 09:27:45+00",32.5,37.5,,41.1,1629,108,501,1006.28,40.9,0
"2020-04-01 09:32:45+00",30.3,34.3,,40.9,1463,265,374,1006.37,40.8,0
"2020-04-01 09:37:45+00",31.4,34.4,,41,1768,-297,722,1006.36,40.9,0
"2020-04-01 09:42:45+00",31.7,34.7,,40.9,1454,338,339,1006.45,40.7,0
"2020-04-01 09:47:45+00",25.8,29.8,,41,2433,-1738,1432,1006.65,40.8,0
"2020-04-01 09:52:45+00",30.4,33.4,,41,2531,-1783,1535,1006.73,40.9,0
"2020-04-01 09:57:45+00",28.4,31.4,,40.7,2599,-1981,1626,1006.78,40.7,0
"2020-04-01 10:02:45+00",23.0,27.0,,40.8,2693,-2549,1852,1006.75,40.7,0
"2020-04-01 10:07:45+00",30.9,35.9,,40.7,2810,-2281,1807,1006.61,40.6,0
"2020-04-01 10:12:45+00",28.9,33.9,,40.7,2568,-1896,1568,1006.7,40.6,0
"2020-04-01 10:17:45+00",25.7,28.7,,40.7,2474,-1845,1515,1006.87,40.6,0
"2020-04-01 10:22:45+00",28.1,33.1,,40.6,2266,-1554,1357,1006.88,40.5,0
"2020-04-01 10:27:45+00",28.3,32.3,,40.6,2382,-1642,1387,1006.97,40.5,0
"2020-04-01 10:32:45+00",29.3,33.3,,40.5,2233,-1425,1297,1006.9,40.5,0
"2020-04-01 10:37:45+00",28.2,32.2,,40.6,1665,-456,757,1006.83,40.5,0
"2020-04-01 10:42:45+00",28.4,33.4,,40.5,1327,193,370,1006.83,40.4,0
"2020-04-01 10:47:45+00",27.3,32.3,,40.4,1840,-909,991,1006.93,40.3,0
"2020-04-01 10:52:45+00",24.5,27.5,,40.7,1221,9,436,1006.94,40.5,0
"2020-04-01 10:57:45+00",29.9,33.9,,40.6,1133,696,71,1006.86,40.5,0
"2020-04-01 11:02:45+00",23.6,28.6,,40.4,1007,350,178,1006.93,40.3,0
"2020-04-01 11:07:45+00",30.9,34.9,,40.5,1151,631,176,1006.72,40.3,0
"2020-04-01 11:12:45+00",30.6,34.6,,40.3,1105,671,129,1006.85,40.3,0
"2020-04-01 11:17:45+00",28.6,30.6,,40.2,1106,485,221,1006.87,40.2,0
"2020-04-01 11:22:45+00",29.5,33.5,,40.3,1060,748,66,1007.04,40.2,0
"2020-04-01 11:27:45+00",30.7,32.7,,40.5,1095,786,63,1007.24,40.3,0
"2020-04-01 11:32:45+00",26.2,30.2,,40.5,1325,-184,549,1007.41,40.4,0
"2020-04-01 11:37:45+00",30.2,35.2,,40.4,1065,665,146,1007.4,40.4,0
"2020-04-01 11:42:45+00",28.1,32.1,,40.3,886,748,69,1007.39,40.3,0
"2020-04-01 11:47:45+00",28.4,33.4,,40.6,1010,691,62,1007.31,40.4,0
"2020-04-01 11:52:45+00",24.9,28.9,,40.7,904,590,92,1007.48,40.5,0
"2020-04-01 11:57:45+00",28.5,31.5,,40.5,937,774,50,1007.57,40.5,0
"2020-04-01 12:02:45+00",30.7,34.7,,40.5,1055,827,39,1007.71,40.5,0
"2020-04-01 12:07:45+00",24.9,26.9,,40.6,846,662,37,1007.87,40.6,0
"2020-04-01 12:12:45+00",24.7,28.7,,40.7,842,655,57,1007.93,40.6,0
"2020-04-01 12:17:45+00",27.3,29.3,,40.6,886,764,0,1007.95,40.6,0
"2020-04-01 12:22:45+00",21.9,24.9,,40.2,725,594,51,1008.11,40.3,0
"2020-04-01 12:27:45+00",25.2,29.2,,40.1,685,817,2,1008.12,40.1,0
"2020-04-01 12:32:45+00",20.9,24.9,,40.3,734,551,69,1008.19,40.1,1.4
"2020-04-01 12:37:45+00",26.6,30.6,,39.9,886,737,23,1008.18,39.9,2.4
"2020-04-01 12:42:45+00",26.3,30.3,,39.5,33,2135,-749,1008.13,39.7,14.9
"2020-04-01 12:47:45+00",25.2,29.2,,39.4,1982,-1483,1342,1008.19,39.3,8.9
"2020-04-01 12:52:45+00",22.5,24.5,,39.4,824,369,193,1008.17,39.1,2.2
"2020-04-01 12:57:45+00",24.7,28.7,,39.8,647,848,-60,1008.15,39.3,25.4
"2020-04-01 13:02:45+00",24.4,26.4,,39.7,527,1033,-198,1008.17,39.4,23
"2020-04-01 13:07:45+00",20.9,25.9,,39.7,516,683,32,1008.13,39.6,14.4
"2020-04-01 13:12:45+00",24.8,28.8,,39.4,794,708,31,1008.14,39.5,33.4
"2020-04-01 13:17:45+00",23.5,27.5,,39.4,614,776,8,1008.09,39.4,21.9
"2020-04-01 13:22:45+00",24.1,28.1,,39.4,563,855,9,1008.13,39.3,20.4
"2020-04-01 13:27:45+00",26.3,29.3,,39.4,657,899,-17,1007.96,39.5,57.4
"2020-04-01 13:32:45+00",23.8,31.8,,39.4,547,869,7,1008.03,39.5,35.4
"2020-04-01 13:37:45+00",27.8,32.8,,39.4,806,841,14,1007.95,39.5,64.2
"2020-04-01 13:42:45+00",26.2,29.2,,39.5,612,928,-12,1007.87,39.8,59
"2020-04-01 13:47:45+00",26.6,31.6,,39.6,595,983,12,1007.93,40,59
"2020-04-01 14:02:45+00",28.4,33.4,,39.7,896,949,-99,1008.11,40.1,85.4
"2020-04-01 14:07:45+00",26.1,31.1,,39.9,770,797,37,1008.12,40.3,40
"2020-04-01 14:12:45+00",29.0,32.0,,39.9,677,1062,-3,1008.1,40.2,56.1
"2020-04-01 14:17:45+00",21.8,25.8,,40.1,525,758,19,1008.17,40.3,66.3
"2020-04-01 14:22:45+00",25.3,30.3,,40.2,656,835,28,1008.05,40.5,66.4
"2020-04-01 14:27:45+00",30.8,33.8,,40.1,969,895,9,1008.08,40.5,52.5
"2020-04-01 14:32:45+00",27.6,30.6,,40,744,889,-24,1008.25,40.5,55
"2020-04-01 14:37:45+00",23.9,26.9,,40,696,731,18,1008.25,40.3,27.8
"2020-04-01 14:42:45+00",25.0,29.0,,39.9,702,771,5,1008.29,40.3,59.5
"2020-04-01 14:47:45+00",21.7,24.7,,39.9,500,795,18,1008.31,40.3,71.3
"2020-04-01 14:52:45+00",22.4,27.4,,40.1,585,751,13,1008.17,40.4,40.3
"2020-04-01 14:57:45+00",24.4,28.4,,40.1,547,873,4,1008.31,40.7,75.3
"2020-04-01 15:02:45+00",22.7,28.7,,40,449,847,15,1008.34,40.6,53.6
"2020-04-01 15:07:45+00",27.1,30.1,,40,621,939,49,1008.31,40.6,88.8
"2020-04-01 15:12:45+00",24.9,27.9,,40.4,722,604,198,1008.24,41,129.7
"2020-04-01 15:17:45+00",21.4,25.4,,40.5,1790,-1466,1274,1008.37,41.4,145
"2020-04-01 15:22:45+00",23.0,30.0,,40.3,1089,-45,467,1008.32,41.2,79.3
"2020-04-01 15:27:45+00",23.9,26.9,,40.2,2176,-1922,1570,1008.31,40.9,97
"2020-04-01 15:32:45+00",19.7,27.7,,40.9,261,1169,-243,1008.2,41.6,154.9
"2020-04-01 17:37:45+00",20.2,23.2,,42.7,-1430,4149,-2006,1007.62,45.6,523
"2020-04-01 18:07:45+00",19.6,22.6,,44.3,-693,2700,-1111,1007.33,47.2,491
"2020-04-01 18:27:45+00",17.9,19.9,,44.4,-185,1974,-863,1007.15,48.1,470.5
"2020-04-01 18:32:45+00",18.7,21.7,,44,83,1517,-596,1007.12,48.2,464.3
"2020-04-01 18:47:45+00",18.4,21.4,,44.4,-1351,3933,-1961,1007.06,48.6,463.9
"2020-04-01 18:57:45+00",17.1,20.1,,44.5,1053,-402,459,1007.09,48.3,445
"2020-04-01 19:12:45+00",17.1,18.1,,44.2,-556,2408,-1138,1006.95,48.2,285.6
"2020-04-01 19:27:45+00",18.0,19.0,,44.5,-1067,3473,-1792,1006.94,48.6,373.2
"2020-04-01 19:32:45+00",16.7,18.7,,44.7,83,1251,-498,1006.89,48.9,372.3
"2020-04-01 19:37:45+00",17.0,20.0,,44.6,-970,3153,-1557,1006.93,48.7,338.3
"2020-04-01 19:42:45+00",17.1,20.1,,44.6,62,1410,-557,1006.93,48.3,361.8
"2020-04-01 19:47:45+00",16.9,17.9,,44.6,-394,2187,-1008,1006.8,48.6,348.3
"2020-04-01 19:57:45+00",15.6,18.6,,44.6,-353,1928,-894,1006.64,48.7,332.8
"2020-04-01 20:07:45+00",16.0,18.0,,44.3,-677,2536,-1196,1006.79,47.6,257.9
"2020-04-01 20:12:45+00",15.0,17.0,,44.8,628,107,81,1006.83,48.2,203.1
"2020-04-01 20:22:45+00",16.5,18.5,,44.1,-457,2149,-1004,1006.83,47.2,281
"2020-04-01 20:27:45+00",14.9,16.9,,43.9,-1445,3659,-1881,1006.88,47.4,152.1
"2020-04-01 20:37:45+00",13.8,15.8,,43.8,-1714,3998,-2036,1006.82,46.4,56.9
"2020-04-01 20:42:45+00",12.8,15.8,,44.1,-539,1985,-1000,1006.84,46.4,117.1
"2020-04-01 20:47:45+00",13.7,14.7,,44.1,-1318,3332,-1819,1006.82,46.8,129.9
"2020-04-01 20:52:45+00",10.4,11.4,,44.2,606,-227,198,1006.79,46.7,143.1
"2020-04-01 20:57:45+00",12.7,13.7,,44.3,656,-135,126,1006.81,47.4,186.7
"2020-04-01 21:02:45+00",10.9,11.9,,44.1,-363,1493,-772,1006.83,47.1,55.5
"2020-04-01 21:07:45+00",10.2,11.2,,44.2,-114,1054,-513,1006.79,46.8,90.9
"2020-04-01 21:12:45+00",10.6,11.6,,44.3,-929,2525,-1296,1006.79,47,48.7
"2020-04-01 21:17:45+00",10.1,11.1,,44.1,-465,1640,-820,1006.78,46.8,45.4
"2020-04-01 21:22:45+00",9.4,10.4,,43.9,712,-482,306,1006.79,46.4,15.2
"2020-04-01 21:27:45+00",9.4,11.4,,44,650,-427,238,1006.89,45.9,37.8
"2020-04-01 21:32:45+00",8.6,10.6,,44.2,-546,1671,-826,1006.92,45.7,46.6
"2020-04-01 21:37:45+00",9.3,10.3,,44.3,82,595,-288,1006.9,45.8,31
"2020-04-01 21:42:45+00",8.0,11.0,,44.5,-406,1361,-683,1006.88,45.9,27.3
"2020-04-01 21:47:45+00",5.4,6.4,,44.6,-270,910,-452,1006.89,46,25.5
"2020-04-01 21:52:45+00",6.5,7.5,,44.7,-342,1127,-571,1006.84,46.1,27.2
"2020-04-01 21:57:45+00",3.8,3.8,,44.6,517,-607,358,1006.92,46.1,13
"2020-04-01 22:02:45+00",2.9,3.9,,44.6,1031,-1636,918,1006.92,46,9.5
"2020-04-01 22:07:45+00",0.6,0.6,,44.6,906,-1580,870,1006.9,45.8,3.8
"2020-04-01 22:12:45+00",2.5,3.5,,44.6,675,-1129,581,1006.94,45.6,1.8
"2020-04-01 22:17:45+00",3.9,4.9,,44.4,1048,-1656,895,1006.92,45.4,1.9
"2020-04-01 22:22:45+00",2.4,2.4,,44.4,720,-1216,629,1006.95,45.3,1
"2020-04-01 22:27:45+00",2.6,3.6,,44.3,725,-1286,656,1007.05,45.2,0.2
"2020-04-01 22:32:45+00",2.3,3.3,,44.4,547,-1029,521,1007.04,45,0.2
"2020-04-01 22:37:45+00",2.5,2.5,,44.4,568,-1104,562,1007.08,44.9,0
"2020-04-01 22:42:45+00",2.5,2.5,,44.3,549,-1111,555,1007,44.7,0
"2020-04-01 22:47:45+00",2.9,3.9,,44.2,586,-1232,631,1007.04,44.4,0
"2020-04-01 22:52:45+00",1.6,2.6,,44.2,549,-1024,526,1007.05,44.4,0
"2020-04-01 22:57:45+00",1.8,2.8,,44.3,697,-1324,697,1007.12,44.4,0
"2020-04-01 23:02:45+00",3.1,4.1,,44.3,831,-1661,861,1007.01,44.3,0
"2020-04-01 23:07:45+00",4.2,5.2,,44.3,906,-1916,1006,1007.04,44.3,0
"2020-04-01 23:12:45+00",4.4,4.4,,44.3,1036,-2153,1149,1007.12,44.2,0
"2020-04-01 23:17:45+00",4.5,5.5,,44.3,1040,-2195,1176,1007.06,44.1,0
"2020-04-01 23:22:45+00",4.7,4.7,,44.3,1093,-2284,1227,1006.99,44,0
"2020-04-01 23:27:45+00",6.2,6.2,,44.3,1369,-2865,1563,1006.91,43.9,0
"2020-04-01 23:32:45+00",7.7,8.7,,44.4,1812,-3752,2046,1006.93,43.6,0
"2020-04-01 23:37:45+00",6.7,6.7,,44.5,1608,-3311,1811,1006.99,43.4,0
"2020-04-01 23:42:45+00",5.8,6.8,,44.4,1480,-3012,1666,1006.92,43.2,0
"2020-04-01 23:47:45+00",6.5,7.5,,44.3,1700,-3451,1901,1007,43,0
"2020-04-01 23:52:45+00",7.7,8.7,,44.3,1856,-3740,2045,1006.99,42.9,0
